Zurück zum Katalog

STARLINK-35032

AktivKommunikationSSO
NORAD 65382·PAYLOAD·🇺🇸 United States

Gestartet Aug 30, 2025 von Vandenberg Space Force Base

Loading…

Nächste Überflüge (nächste 24 Stunden)

TLE

AktuellSource: CelesTrak SupGP

Epoche: Sep 14, 2026, 20:39 UTC

1 65382C 25191D   26257.86090278 -.00026210  00000+0 -81369-3 0  2573
2 65382  97.2842 123.9887 0001879  90.7846 354.1540 15.33449394    13

Verfolge STARLINK-35032 in Echtzeit mit AllMySat

Download on the App Store